Simultaneous Nadir Overpasses (SNOs) Predictions

Prediction of SNOs between AQUA and LANDSAT-8 Satellite Orbit:

Table of predicted SNOs for the next 14.0 days since TLE Epoch: 1/13/2024
Index Date (AQUA) Time (AQUA) Lat,Lon (AQUA) SZA (AQUA ) Date (LANDSAT-8) Time (LANDSAT-8) Lat,Lon (LANDSAT-8) SZA (LANDSAT-8 ) Distance(km) Time Diff (sec)
1 01/25/2024 21:05:30 -72.43, 46.54 88.75 01/25/2024 21:04:24 -72.47, 43.99 88.69 85.64 66
2 01/25/2024 21:54:55 72.48,-145.90 91.30 01/25/2024 21:53:49 72.47,-148.36 91.31 82.51 66
3 01/25/2024 22:44:21 -72.68, 21.37 88.51 01/25/2024 22:43:13 -72.68, 19.66 88.50 56.38 68
4 01/25/2024 23:33:46 72.73,-171.07 91.53 01/25/2024 23:32:37 72.74,-172.58 91.55 49.77 69
5 01/26/2024 00:23:12 -72.93, -3.82 88.27 01/26/2024 00:22:01 -72.94, -4.55 88.26 23.82 71
6 01/26/2024 01:12:37 72.98, 163.74 91.77 01/26/2024 01:11:26 72.95, 163.11 91.74 20.82 71
7 01/26/2024 02:02:02 -73.13, -28.91 88.09 01/26/2024 02:00:50 -73.15, -28.85 88.07 3.23 72
8 01/26/2024 02:51:26 73.13, 138.75 91.90 01/26/2024 02:50:16 73.11, 138.70 91.88 2.78 70
9 01/26/2024 03:40:48 -73.12, -53.57 88.12 01/26/2024 03:39:44 -73.10, -53.67 88.13 3.73 64
10 01/26/2024 04:30:12 73.12, 114.09 91.87 01/26/2024 04:29:09 73.11, 113.98 91.87 3.43 63
11 01/26/2024 05:19:35 -73.16, -78.34 88.10 01/26/2024 05:18:36 -73.15, -78.29 88.10 1.89 59
12 01/26/2024 06:08:59 73.16, 89.31 91.90 01/26/2024 06:08:01 73.16, 89.37 91.90 1.90 58
13 01/26/2024 06:58:21 -73.15,-103.01 88.13 01/26/2024 06:57:29 -73.16,-103.01 88.12 1.06 52
14 01/26/2024 07:47:45 73.14, 64.65 91.87 01/26/2024 07:46:54 73.16, 64.65 91.89 1.97 51
15 01/26/2024 08:37:07 -73.13,-127.68 88.16 01/26/2024 08:36:22 -73.16,-127.73 88.13 2.98 45
16 01/26/2024 09:26:32 73.18, 39.87 91.89 01/26/2024 09:25:47 73.16, 39.93 91.87 3.04 45
17 01/26/2024 10:15:54 -73.17,-152.45 88.13 01/26/2024 10:15:15 -73.16,-152.45 88.15 1.95 39
18 01/26/2024 11:05:18 73.17, 15.21 91.86 01/26/2024 11:04:40 73.16, 15.21 91.85 1.07 38
19 01/26/2024 11:54:40 -73.16,-177.12 88.16 01/26/2024 11:54:08 -73.16,-177.17 88.17 1.80 32
20 01/26/2024 12:44:04 73.16, -9.46 91.83 01/26/2024 12:43:33 73.16, -9.51 91.83 1.77 31
21 01/26/2024 13:33:27 -73.20, 158.11 88.14 01/26/2024 13:33:00 -73.21, 158.22 88.13 3.53 27
22 01/26/2024 14:22:51 73.20, -34.23 91.85 01/26/2024 14:22:25 73.21, -34.13 91.87 3.83 26
23 01/26/2024 15:12:13 -73.19, 133.44 88.17 01/26/2024 15:11:53 -73.21, 133.50 88.15 2.79 20
24 01/26/2024 16:01:37 73.19, -58.90 91.82 01/26/2024 16:01:19 73.16, -58.95 91.80 3.29 18
25 01/26/2024 16:50:59 -73.18, 108.78 88.20 01/26/2024 16:50:46 -73.21, 108.78 88.17 3.61 13
26 01/26/2024 17:40:24 73.23, -83.67 91.85 01/26/2024 17:40:11 73.21, -83.57 91.83 3.68 13
27 01/26/2024 18:29:46 -73.22, 84.00 88.18 01/26/2024 18:29:39 -73.21, 84.06 88.18 1.86 7
28 01/26/2024 19:19:10 73.21,-108.34 91.82 01/26/2024 19:19:04 73.21,-108.29 91.82 1.66 6
29 01/26/2024 20:08:32 -73.20, 59.34 88.21 01/26/2024 20:08:32 -73.21, 59.33 88.20 0.51 0
30 01/26/2024 20:57:56 73.20,-133.01 91.79 01/26/2024 20:57:57 73.21,-133.01 91.80 1.31 1
31 01/26/2024 21:47:18 -73.19, 34.67 88.24 01/26/2024 21:47:25 -73.21, 34.61 88.22 2.61 7
32 01/26/2024 22:36:42 73.19,-157.67 91.76 01/26/2024 22:36:50 73.21,-157.73 91.78 3.22 8
33 01/26/2024 23:26:05 -73.23, 9.90 88.21 01/26/2024 23:26:18 -73.21, 9.89 88.24 2.63 13
34 01/27/2024 00:15:29 73.23, 177.55 91.78 01/27/2024 00:15:43 73.21, 177.55 91.77 1.87 14
35 01/27/2024 01:04:51 -73.22, -14.77 88.24 01/27/2024 01:05:11 -73.21, -14.83 88.25 2.26 20
36 01/27/2024 01:54:15 73.22, 152.88 91.75 01/27/2024 01:54:36 73.21, 152.83 91.75 1.91 21
37 01/27/2024 02:43:38 -73.26, -39.55 88.22 01/27/2024 02:44:03 -73.26, -39.44 88.22 3.33 25
38 01/27/2024 03:33:02 73.26, 128.11 91.78 01/27/2024 03:33:28 73.27, 128.21 91.78 3.46 26



Historial Predications of SNOs between AQUA and LANDSAT-8
